Search for airport 
image banner adimage banner ad
image banner ad

WBKR - Ranau

Located in , Malaysia

ICAO - WBKR, IATA - RNU

Data provided by Airmate  

General information

Coordinates: N5°57'29" E116°40'25"
Elevation is 1800 feet MSL.
 
Rated:
View ratings: [VIEW]


View others Airports in Sabah

Operational data

Open for public use
Current time UTC:
Current local time:
Weather at : WBKK - Kota Kinabalu International ( 69 km )
METAR: WBKK 250230Z 32004KT 240V020 9999 FEW015 31/25 Q1010 NOSIG
TAF: TAF WBKK 242300Z 2500/2600 33008KT 9999 FEW014 BECMG 2514/2516 11005KT
View NOTAMs / SUP AIP / TFR affecting this airport [VIEW]
Communications frequencies: [VIEW]

Runways:

RWY identifierQFULength (ft)Width (ft)SurfaceLDA (ft)
0300
2100

Airport contact information

Address: Malaysia

Satellite view of WBKR